Flag for Germany Weather past 2 weeks in Taunusstein, Hesse, Germany

Now
70 °F

Light rain. Broken clouds.


Feels Like: 70 °F
Forecast: 54 / 66 °F
Wind: 6 mph from East

Location: Wiesbaden Airport

Current Time: Oct 1, 2014 at 2:29:47 PM

Latest Report: Oct 1, 2014 at 1:58 PM


Visibility: N/A

Pressure: 30.32 "Hg

Humidity: 73%

Dew point: 61 °F

Location of TaunussteinLocation

Historic Weather in Taunusstein — Graph

°F

Taunusstein temperature yesterday

Maximum temperature yesterday: 70 °F (at 4:58 PM)
Minimum temperature yesterday: 58 °F (at 7:58 AM)
Average temperature yesterday: 64 °F

Past Weeks' High & Low Weather Summary

 TemperatureHumidityPressure
High77 °F (Sep 17, 3:58 PM)100% (Sep 19, 6:58 AM)30.39 "Hg (Sep 19, 6:58 AM)
Low43 °F (Sep 23, 5:58 AM)49% (Sep 17, 4:58 PM)29.86 "Hg (Sep 18, 2:58 AM)
Average61 °F83%30.11 "Hg
* Reported Sep 16 12:58 PM — Oct 1 12:58 PM, Taunusstein, Weather by CustomWeather, © 2014

Note: Actual official high and low records may vary slightly from our data, if they occured in-between our weather recording intervals... More about our weather records

Advertising

Taunusstein weather history for previous 24 hours

 ConditionsComfort  
Time TempWeatherWind HumidityBarometerVisibility
12:58 PM
Oct 1
70 °FPartly sunny.2 mph73%30.34 "HgN/A
11:58 AM64 °FScattered clouds.3 mph83%30.35 "HgN/A
10:58 AM63 °FScattered clouds.5 mph88%30.34 "HgN/A
9:58 AM60 °FScattered clouds.2 mph92%30.33 "HgN/A
8:58 AM58 °FSunny.No wind95%30.32 "HgN/A
8:01 AM54 °FFog.No wind100%30.32 "Hg3 mi
7:58 AM54 °FFog.No wind100%30.32 "Hg2 mi
6:58 AM54 °FClear.No wind97%30.31 "HgN/A
5:58 AM55 °FClear.1 mph100%30.31 "HgN/A
4:58 AM55 °FClear.No wind100%30.31 "HgN/A
4:04 AM57 °FPassing clouds.No wind94%30.31 "HgN/A
3:58 AM58 °FPassing clouds.No wind98%30.31 "HgN/A
2:58 AM58 °FPassing clouds.No wind99%30.31 "HgN/A
1:58 AM59 °FOvercast.No wind94%30.31 "HgN/A
12:58 AM59 °FOvercast.2 mph97%30.30 "HgN/A
12:02 AM57 °FPassing clouds.No wind100%30.31 "HgN/A
11:58 PM
Sep 30
59 °FPassing clouds.No wind94%30.31 "HgN/A
10:58 PM60 °FOvercast.1 mph94%30.31 "HgN/A
9:58 PM63 °FOvercast.5 mph88%30.30 "HgN/A
8:58 PM64 °FOvercast.5 mph88%30.30 "HgN/A
7:58 PM66 °FOvercast.3 mph78%30.29 "HgN/A
6:58 PM68 °FOvercast.2 mph73%30.29 "HgN/A
5:58 PM69 °FMostly cloudy.3 mph70%30.28 "HgN/A
4:58 PM70 °FOvercast.8 mph69%30.27 "HgN/A
3:58 PM69 °FBroken clouds.6 mph71%30.27 "HgN/A
2:58 PM68 °FPartly sunny.5 mph73%30.29 "HgN/A
Weather by CustomWeather, © 2014

See weather overviewHow to use our weather pages